Showing default

FIREFLY-3, 62710

Orbit data source: Space-Track

FIREFLY-3, 62710 is a payload satellite owned by Pixxel (IN) in SSO that was launched on Tue, 14 Jan 2025 UTC via an FALCON 9 launch vehicle from the Air Force Western Test Range (AFWTR). Payload-class satellites include a variety of spacecraft equipped with specific instruments for various scientific and technological missions. These include communications satellites like Starlink; space stations such as the ISS; scientific satellites like the Hubble; Earth observation satellites from companies like Planet Labs, Umbra, and HawkEye 360; GPS; miniature CubeSats for education and research; and military/defense satellites.

Loading next visibility...
Identifier
62710, 2025-009DF
Orbit
SSO
Country
Flag of ININ / IND
Related business
Manufacturer
Pixxel
Mission
Operational Commercial Imaging
Bus & Motor
FIREFLY, Unknown motor
Mass
60 kg wet, 60 kg dry
Launch date (UTC)
2025-01-14 (1 year ago)
Launch vehicle
FALCON 9
Launch site
Air Force Western Test Range (AFWTR)
Object type
Payload
Rocket body
Debris
Shape & HBR
Box + 2 Pan, 0.7 m
Radar Cross Section
0.338 m², Medium (>0.1 m² and < 1m²)

Expand to show TLE details & history
Last TLE update: 9 hours ago

TLE from 9 hours ago
0 FIREFLY-3
1 62710U 25009DF  26171.46881475  .00000706  00000-0  73750-4 0  9991
2 62710  97.7060 249.5638 0004475 129.8151 230.3463 14.92740754 77829
Epoch: 2026-06-20T11:15Z
TLE epoch observation values (Epoch: 2026-06-20T11:15:05.594Z)
Latitude
-0.00001°
Longitude
172.1075°
Altitude
594.43 km
Speed
7.562 km/s
True Right ascension
16h 38m 15s
True Declination
0° 00' 00"
Sunlit
Object was in full shadow at epoch
Visualization orbit readout
Latitude
Unknown
Longitude
Unknown
Altitude
Unknown
Speed
Unknown
Apparent Right ascension
Unknown
Apparent Declination
Unknown
Sunlit
N/A
Visualization observer readout
Local Sidereal Time
07:23:30
Azimuth
Unknown
Elevation
Unknown
Doppler factor
Unknown
Orbital elements
Apogee altitude
589.526 km
Perigee altitude
583.293 km
Semi-major axis
6,964.546 km
Eccentricity
0.00045
Inclination
97.706°
RAAN
249.5638°
Arg. of periapsis
129.8151°
True anomaly
230.30683°
Mean anomaly
230.3463°
Eccentric anomaly
230.32657°
Mean motion
3.73425 °/min
Orbital period
96.4 mins
BSTAR
0.00007375
Loading maneuver chart data...
Computing Atmospheric mass density...
Loading historical data...
Loading historical data...
Loading historical data...
Loading historical data...
Loading historical data...
Loading historical data...
Loading historical data...

Documentation

Showing up to 5 results
|